CZ-3A DEB, 35554

Orbit data source: Space-Track

CZ-3A DEB, 35554 is space debris in HEO originally from a launch on Fri, 02 Feb 2007 UTC launched from the Xichang Space Center, China (XSC). Debris objects in space refer to the collection of defunct objects orbiting the Earth. Examples of debris include non-operational satellites, rocket bodies, and fragments generated from explosions, collisions, or faulty payload assembly.

Loading next visibility...
Identifier
35554, 2007-003N
Orbit
HEO
Country
Flag of CNCN / PRC
Related business
Manufacturer
Unknown
Mission
Spacecraft
Bus & Motor
Unknown
Mass
Unknown
Launch date (UTC)
2007-02-02 (19 years ago)
Launch vehicle
Unknown
Launch site
Xichang Space Center, China (XSC)
Object type
Payload
Rocket body
Debris
Shape & HBR
Unknown shape, 0.3 m
Radar Cross Section
Medium (>0.1 m² and <1 m²)

Expand to show TLE details & history
Last TLE update: 6 days ago

TLE from 6 days ago
0 CZ-3A DEB
1 35554U 07003N   25336.25149032 -.00000136  00000-0 -48605-3 0  9995
2 35554  24.0230 284.6172 7508762 188.6663 140.9877  1.86093090 83652
Epoch: 2025-12-02T06:02Z
TLE epoch observation values (Epoch: 2025-12-02T06:02:08.763Z)
Latitude
0.00016°
Longitude
122.74258°
Altitude
40,907.248 km
Speed
1.607 km/s
True Right ascension
18h 58m 28s
True Declination
0° 00' 01"
Sunlit
Object was in daylight at epoch
Visualization orbit readout
Latitude
Unknown
Longitude
Unknown
Altitude
Unknown
Speed
Unknown
Apparent Right ascension
Unknown
Apparent Declination
Unknown
Sunlit
N/A
Visualization observer readout
Local Sidereal Time
05:19:28
Azimuth
Unknown
Elevation
Unknown
Doppler factor
Unknown
Orbital elements
Apogee altitude
42,513.516 km
Perigee altitude
578.422 km
Semi-major axis
27,924.106 km
Eccentricity
0.75088
Inclination
24.023°
RAAN
284.6172°
Arg. of periapsis
188.6663°
True anomaly
171.40698°
Mean anomaly
140.9877°
Eccentric anomaly
157.47138°
Mean motion
0.46513 °/min
Orbital period
773.98 mins
BSTAR
-0.00048605
Loading maneuver chart data...
Computing Atmospheric mass density...
Loading historical data...
Loading historical data...
Loading historical data...
Loading historical data...
Loading historical data...
Loading historical data...
Loading historical data...

Documentation

Showing up to 5 results
|